• In Kazakhstan
  • List of Countries
  • For 7 days
  • Water Temperature
  • Weather Map
  • News
  • Weather Widgets
  • user-avatar
    Login

    Hourly Weather Skagen

    Today, 12 December, Thursday

    Time Temperature Precipitation Wind Pressure Humidity
    00:00 +2°C° 0 mm 7 mps 749 mmHg 83%
    01:00 +2°C° 0 mm 7 mps 749 mmHg 85%
    02:00 +2°C° 0 mm 7 mps 748 mmHg 84%
    03:00 +2°C° 0 mm 7 mps 748 mmHg 84%
    04:00 +2°C° 0 mm 6 mps 747 mmHg 84%
    05:00 +2°C° 0 mm 7 mps 747 mmHg 86%
    06:00 +2°C° 0 mm 7 mps 747 mmHg 87%
    07:00 +2°C° 0 mm 7 mps 747 mmHg 89%
    08:00 +2°C° 0 mm 7 mps 747 mmHg 90%
    09:00 +2°C° 0 mm 7 mps 746 mmHg 91%
    10:00 +2°C° 0 mm 7 mps 746 mmHg 91%
    11:00 +2°C° 0 mm 7 mps 745 mmHg 88%
    12:00 +1°C° 0 mm 8 mps 745 mmHg 86%
    13:00 +1°C° 0 mm 8 mps 745 mmHg 83%
    14:00 +1°C° 0 mm 8 mps 744 mmHg 86%
    15:00 +1°C° 0 mm 8 mps 744 mmHg 89%
    16:00 +1°C° 0 mm 9 mps 743 mmHg 91%
    17:00 +1°C° 0.1 mm 8 mps 743 mmHg 91%
    18:00 +1°C° 0.1 mm 8 mps 743 mmHg 92%
    19:00 +1°C° 0.1 mm 8 mps 743 mmHg 92%
    20:00 0°C° 0.1 mm 8 mps 742 mmHg 90%
    21:00 0°C° 0.1 mm 8 mps 742 mmHg 89%
    22:00 0°C° 0.1 mm 8 mps 742 mmHg 87%
    23:00 0°C° 0 mm 8 mps 742 mmHg 88%

    Tomorrow, 13 December, Friday

    Time Temperature Precipitation Wind Pressure Humidity
    00:00 0°C° 0 mm 8 mps 742 mmHg 88%
    01:00 -1°C° 0 mm 8 mps 742 mmHg 89%
    02:00 0°C° 0 mm 8 mps 741 mmHg 85%
    03:00 0°C° 0 mm 9 mps 741 mmHg 82%
    04:00 0°C° 0 mm 10 mps 740 mmHg 79%
    05:00 +1°C° 0 mm 10 mps 740 mmHg 77%
    06:00 +1°C° 0 mm 10 mps 740 mmHg 76%
    07:00 +2°C° 0 mm 11 mps 740 mmHg 75%
    08:00 +2°C° 0.1 mm 11 mps 740 mmHg 74%
    09:00 +2°C° 0.1 mm 11 mps 740 mmHg 74%
    10:00 +2°C° 0.1 mm 12 mps 740 mmHg 73%
    11:00 +2°C° 0.1 mm 12 mps 740 mmHg 72%
    12:00 +2°C° 0.1 mm 12 mps 740 mmHg 72%
    13:00 +2°C° 0.1 mm 12 mps 739 mmHg 72%
    14:00 +2°C° 0.1 mm 11 mps 739 mmHg 72%
    15:00 +2°C° 0.1 mm 11 mps 739 mmHg 72%
    16:00 +2°C° 0.1 mm 11 mps 739 mmHg 72%
    17:00 +2°C° 0.1 mm 11 mps 739 mmHg 73%
    18:00 +2°C° 0.1 mm 10 mps 739 mmHg 74%
    19:00 +2°C° 0.1 mm 10 mps 739 mmHg 74%
    20:00 +2°C° 0.1 mm 10 mps 739 mmHg 74%
    21:00 +2°C° 0.1 mm 9 mps 739 mmHg 75%
    22:00 +2°C° 0.1 mm 8 mps 739 mmHg 75%
    23:00 +2°C° 0.1 mm 8 mps 739 mmHg 76%

    Day after tomorrow, 14 December, Saturday

    Time Temperature Precipitation Wind Pressure Humidity
    00:00 +2°C° 0.1 mm 8 mps 739 mmHg 77%
    01:00 +2°C° 0.1 mm 8 mps 739 mmHg 78%
    02:00 +1°C° 0.1 mm 8 mps 738 mmHg 77%
    03:00 +1°C° 0.1 mm 8 mps 738 mmHg 76%
    04:00 +1°C° 0.1 mm 9 mps 737 mmHg 75%
    05:00 +1°C° 0.1 mm 9 mps 737 mmHg 81%
    06:00 +1°C° 0.1 mm 9 mps 737 mmHg 87%
    07:00 +1°C° 0.1 mm 9 mps 736 mmHg 94%
    08:00 +1°C° 0.4 mm 8 mps 736 mmHg 92%
    09:00 +1°C° 0.4 mm 8 mps 736 mmHg 90%
    10:00 +1°C° 0.4 mm 8 mps 735 mmHg 88%
    11:00 +1°C° 0.2 mm 8 mps 735 mmHg 87%
    12:00 +1°C° 0.2 mm 8 mps 734 mmHg 86%
    13:00 +2°C° 0.2 mm 8 mps 734 mmHg 85%
    14:00 +2°C° 0.1 mm 8 mps 734 mmHg 87%
    15:00 +2°C° 0.1 mm 8 mps 733 mmHg 89%
    16:00 +2°C° 0.1 mm 8 mps 733 mmHg 92%
    17:00 +2°C° 0.7 mm 9 mps 733 mmHg 93%
    18:00 +2°C° 0.7 mm 9 mps 733 mmHg 93%
    19:00 +1°C° 0.7 mm 9 mps 733 mmHg 94%
    20:00 +2°C° 1 mm 10 mps 733 mmHg 87%
    21:00 +2°C° 1 mm 11 mps 733 mmHg 79%
    22:00 +2°C° 1 mm 12 mps 733 mmHg 71%
    23:00 +2°C° 0.2 mm 12 mps 734 mmHg 69%

    15 December, Sunday

    Time Temperature Precipitation Wind Pressure Humidity
    00:00 +1°C° 0.2 mm 13 mps 735 mmHg 68%
    01:00 0°C° 0.2 mm 13 mps 735 mmHg 66%
    02:00 0°C° 0.1 mm 12 mps 736 mmHg 67%
    03:00 0°C° 0.1 mm 12 mps 736 mmHg 68%
    04:00 0°C° 0.1 mm 12 mps 737 mmHg 69%
    05:00 +1°C° 0.1 mm 11 mps 737 mmHg 70%
    06:00 +1°C° 0.1 mm 11 mps 738 mmHg 70%
    07:00 +1°C° 0.1 mm 11 mps 738 mmHg 71%
    08:00 +1°C° 0 mm 11 mps 738 mmHg 72%
    09:00 0°C° 0 mm 10 mps 738 mmHg 73%
    10:00 0°C° 0 mm 10 mps 739 mmHg 74%
    11:00 0°C° 0.5 mm 9 mps 738 mmHg 81%
    12:00 -1°C° 0.5 mm 8 mps 738 mmHg 89%
    13:00 -2°C° 0.5 mm 6 mps 737 mmHg 97%
    14:00 -1°C° 0.5 mm 6 mps 738 mmHg 95%
    15:00 0°C° 0.5 mm 5 mps 739 mmHg 93%
    16:00 0°C° 0.5 mm 5 mps 739 mmHg 92%
    17:00 0°C° 0.1 mm 7 mps 740 mmHg 86%
    18:00 +1°C° 0.1 mm 9 mps 741 mmHg 80%
    19:00 +2°C° 0.1 mm 11 mps 742 mmHg 74%
    20:00 +2°C° 0.1 mm 12 mps 743 mmHg 74%
    21:00 +1°C° 0.1 mm 13 mps 744 mmHg 75%
    22:00 +1°C° 0.1 mm 14 mps 744 mmHg 75%
    23:00 0°C° 0 mm 12 mps 745 mmHg 77%

    16 December, Monday

    Time Temperature Precipitation Wind Pressure Humidity
    00:00 +1°C° 0 mm 11 mps 745 mmHg 78%
    01:00 +1°C° 0 mm 10 mps 745 mmHg 79%
    02:00 +1°C° 0.2 mm 10 mps 746 mmHg 80%
    03:00 +1°C° 0.2 mm 10 mps 746 mmHg 80%
    04:00 0°C° 0.2 mm 10 mps 747 mmHg 81%
    05:00 +1°C° 0.2 mm 10 mps 747 mmHg 80%
    06:00 +1°C° 0.2 mm 10 mps 747 mmHg 80%
    07:00 +1°C° 0.2 mm 10 mps 748 mmHg 79%
    08:00 +1°C° 0.1 mm 10 mps 748 mmHg 81%
    09:00 0°C° 0.1 mm 9 mps 749 mmHg 83%
    10:00 0°C° 0.1 mm 9 mps 749 mmHg 85%
    11:00 0°C° 0.1 mm 8 mps 750 mmHg 85%
    12:00 +1°C° 0.1 mm 8 mps 750 mmHg 85%
    13:00 +1°C° 0.1 mm 8 mps 751 mmHg 85%
    14:00 +1°C° 0.1 mm 8 mps 751 mmHg 87%
    15:00 +1°C° 0.1 mm 8 mps 751 mmHg 88%
    16:00 +1°C° 0.1 mm 8 mps 751 mmHg 89%
    17:00 +1°C° 0.1 mm 8 mps 751 mmHg 89%
    18:00 +1°C° 0.1 mm 8 mps 751 mmHg 88%
    19:00 +1°C° 0.1 mm 8 mps 752 mmHg 87%
    20:00 +1°C° 0 mm 8 mps 752 mmHg 88%
    21:00 0°C° 0 mm 8 mps 752 mmHg 89%
    22:00 0°C° 0 mm 8 mps 752 mmHg 90%
    23:00 0°C° 0 mm 8 mps 752 mmHg 91%

    17 December, Tuesday

    Time Temperature Precipitation Wind Pressure Humidity
    00:00 +2°C° 0 mm 7 mps 752 mmHg 91%
    01:00 +2°C° 0 mm 7 mps 752 mmHg 92%
    02:00 +2°C° 0 mm 7 mps 752 mmHg 92%
    03:00 +2°C° 0 mm 7 mps 752 mmHg 93%
    04:00 +1°C° 0 mm 8 mps 752 mmHg 93%
    05:00 +2°C° 0 mm 7 mps 752 mmHg 93%
    06:00 +2°C° 0 mm 7 mps 752 mmHg 93%
    07:00 +2°C° 0 mm 7 mps 752 mmHg 93%
    08:00 +2°C° 0 mm 7 mps 752 mmHg 93%
    09:00 +2°C° 0 mm 7 mps 752 mmHg 92%
    10:00 +2°C° 0 mm 7 mps 753 mmHg 92%
    11:00 +2°C° 0.1 mm 6 mps 752 mmHg 92%
    12:00 +3°C° 0.1 mm 6 mps 752 mmHg 91%
    13:00 +3°C° 0.1 mm 6 mps 752 mmHg 91%
    14:00 +3°C° 0.3 mm 6 mps 752 mmHg 92%
    15:00 +3°C° 0.3 mm 6 mps 752 mmHg 94%
    16:00 +3°C° 0.3 mm 5 mps 751 mmHg 95%
    17:00 +2°C° 0.1 mm 5 mps 752 mmHg 95%
    18:00 +2°C° 0.1 mm 6 mps 752 mmHg 95%
    19:00 +2°C° 0.1 mm 6 mps 752 mmHg 94%
    20:00 +2°C° 0.1 mm 6 mps 752 mmHg 92%
    21:00 +2°C° 0.1 mm 6 mps 752 mmHg 90%
    22:00 +2°C° 0.1 mm 6 mps 753 mmHg 88%
    23:00 +2°C° 0 mm 6 mps 753 mmHg 85%
    Show more